Lid_Strength_Index
1 1 1 1 1 1 1 1 0 0 0 1 2 2 2 2 2 2 1 2 2 2 2 3 3 3 5 4 4 4 4 5 7 6 5 4 5 4 4 3 3 2 2
1 1 1 1 1 1 1 1 0 0 0 1 1 2 2 2 2 2 3 3 4 4 3 3 4 5 4 4 5 4 5 5 6 7 6 6 5 4 3 3 2 2 1
1 1 1 1 1 1 1 1 0 1 1 0 1 2 2 2 2 2 3 3 4 3 3 4 5 5 5 5 5 5 6 6 6 7 8 6 6 4 4 2 1 0 1
1 1 2 1 1 1 1 1 1 1 1 1 1 2 2 2 3 2 3 3 4 4 5 5 5 5 5 5 6 6 6 6 7 7 7 7 6 5 3 3 2 1 1
1 2 2 1 1 1 1 1 1 1 0 0 1 2 2 3 3 1 3 4 4 6 6 6 4 6 5 5 6 6 6 7 7 8 7 7 6 6 5 3 2 1 -0
2 2 1 1 1 1 1 1 1 1 1 1 2 3 3 3 6 6 4 4 6 7 6 5 7 6 7 7 6 6 6 6 6 7 7 7 5 5 3 2 1 2 2
2 2 2 1 2 2 1 1 1 1 1 2 2 4 4 4 8 8 7 5 6 7 8 8 7 7 8 8 7 7 7 6 5 5 6 5 4 2 2 1 0 1 1
2 2 2 1 2 2 2 2 2 2 2 3 3 4 4 4 8 8 8 5 7 7 8 8 8 8 8 8 8 7 6 6 5 5 4 3 1 0 -0 -0 -1 -1 -1
2 2 2 2 2 2 3 3 2 2 3 3 3 4 4 4 9 9 7 6 7 8 9 9 8 8 9 9 7 6 6 6 7 6 6 5 5 5 3 0 1 1 2
2 2 2 2 2 2 2 3 4 3 3 3 3 3 5 7 9 10 7 7 8 8 9 9 8 9 11 10 6 7 7 7 6 6 5 3 3 2 3 -1 -1 1 1
2 1 1 1 2 2 2 2 3 4 4 4 6 6 8 8 9 10 9 7 8 9 8 9 9 10 11 11 9 6 7 6 6 5 4 2 1 0 -0 -0 -1 -1 0
2 2 2 1 1 2 2 2 4 5 7 7 8 9 8 8 9 10 9 8 8 8 8 8 8 11 12 11 9 10 10 8 5 6 4 2 2 1 0 -1 -2 -3 -3
2 2 2 1 1 2 2 3 6 7 7 7 7 9 9 9 8 9 10 9 9 8 7 8 10 12 12 11 10 11 10 6 6 5 3 2 1 -0 -1 -1 -2 -2 -2
2 2 2 2 2 2 2 4 5 6 6 7 8 8 8 9 9 8 9 9 8 7 8 9 10 10 10 8 9 9 6 5 5 4 2 1 0 -0 1 -0 -0 -1 -1
2 2 2 2 2 5 8 7 6 6 7 8 8 8 9 8 8 9 8 8 7 8 8 9 11 10 10 9 8 7 6 5 5 3 2 1 1 0 1 -0 -0 -1 -0
3 3 3 3 3 2 4 8 12 11 11 11 11 9 7 9 10 10 10 10 11 11 9 10 10 10 10 9 8 7 6 6 5 2 1 1 1 1 1 1 -0 -1 0
3 3 3 4 3 4 5 4 8 11 13 12 12 12 10 9 10 11 11 12 12 10 9 9 9 8 9 9 8 7 6 5 4 2 1 1 0 0 1 1 0 0 0
2 5 2 3 4 4 5 6 8 9 9 10 12 11 12 12 12 12 12 12 12 9 8 9 8 7 8 8 7 7 6 5 3 2 1 0 -0 0 1 1 1 1 0
2 3 2 3 4 5 5 6 7 8 9 10 11 13 13 13 13 13 11 9 9 9 8 7 7 6 6 7 7 5 5 5 4 2 1 0 0 0 0 0 0 5 4
2 4 5 4 4 5 6 6 7 8 9 10 10 12 12 12 10 10 8 9 9 9 8 7 6 5 5 4 5 5 5 5 3 1 0 -0 -0 -0 0 0 0 1 0
2 2 9 4 5 6 6 6 6 8 9 9 10 11 12 9 9 9 8 8 9 9 9 8 7 5 4 4 5 5 5 4 2 1 0 0 -0 0 -0 -0 0 0 0
2 3 3 4 4 5 5 6 7 8 8 9 10 12 14 8 8 8 8 8 8 8 8 6 5 5 4 4 5 5 5 4 2 1 -0 0 -0 0 0 0 0 0 0
2 3 3 5 6 9 6 6 7 8 9 10 11 11 10 10 9 9 9 9 8 7 5 5 5 5 5 5 4 4 4 3 2 0 -0 0 -0 0 -0 0 0 0 0
4 4 5 6 6 6 6 7 8 10 9 9 10 9 10 9 10 9 8 7 7 6 6 5 5 5 5 5 4 4 3 3 2 1 -0 0 -0 1 -0 0 0 0 0
4 5 5 6 6 6 7 7 8 8 8 8 8 8 8 8 8 8 7 6 7 6 6 6 5 5 4 4 4 4 5 10 2 4 0 0 -0 0 -0 0 0 0 0
4 4 5 5 5 5 6 6 7 7 8 8 7 7 6 6 6 5 5 6 5 5 5 5 4 4 4 4 4 7 10 9 6 9 2 1 1 1 0 -0 0 0 0